Regional Weather Roundup
Issued by NWS Newport/Morehead, NC

Current Version | Previous Version | Graphics & Text | Print | Product List | Glossary On
Versions: 1 2 3 4 5 6 7 8 9 10 11 12 13 14 15 16 17 18 19 20 21 22 23 24 25 26 27 28 29 30 31 32 33 34 35 36 37 38 39 40 41 42 43 44 45 46 47 48 49 50
000 ASUS42 KMHX 031013 RWRMHX WEATHER ROUNDUP FOR EASTERN NORTH CAROLINA NATIONAL WEATHER SERVICE NEWPORT/MOREHEAD CITY NC 600 AM EDT FRI JUL 03 2015 NOTE: "FAIR" INDICATES FEW OR NO CLOUDS BELOW 12,000 FEET WITH NO SIGNIFICANT WEATHER AND/OR OBSTRUCTIONS TO VISIBILITY NCZ015>017-031-032-045>047-102-103-031100- NORTH COAST CITY SKY/WX TMP DP RH WIND PRES REMARKS EDENTON CLOUDY 70 69 97 CALM 29.93R FOG ELIZABETH CITY CLOUDY 72 71 97 W5 29.94R KITTY HAWK MOSUNNY 71 69 95 CALM 29.91R FOG MANTEO MOCLDY 73 73 98 W5 29.92R $$ NCZ045>047-081-094-103-104-031100- CENTRAL COAST CITY SKY/WX TMP DP RH WIND PRES REMARKS FRISCO MOCLDY 76 70 82 W8 29.93R SWANQUARTER N/A 75 N/A N/A SW16 29.91R $$ NCZ095-097-098-100-101-031100- SOUTHERN COAST CITY SKY/WX TMP DP RH WIND PRES REMARKS BEAUFORT MOCLDY 75 70 84 W13 29.95R CEDAR ISLAND N/A 75 N/A N/A SW9G17 29.97S JACKSONVILLE CLOUDY 71 68 90 SW7 29.96S PINEY ISLAND MOSUNNY N/A N/A N/A SW13 29.94R WILMINGTON CLOUDY 72 69 90 SW6 29.97S $$ NCZ011>013-027>030-043-044-078>080-089-090>093-098-031100- COASTAL PLAIN CITY SKY/WX TMP DP RH WIND PRES REMARKS AHOSKIE PTCLDY 69 67 94 CALM 29.95R FOG CLINTON CLOUDY 71 69 96 CALM 29.97R ELIZABETHTOWN PTCLDY 70 69 96 CALM 29.96S GOLDSBORO PTCLDY 71 69 95 SW3 29.94R GREENVILLE CLOUDY 72 72 100 CALM 29.97R HAVELOCK MOCLDY 72 68 87 SW7 29.96R KENANSVILLE CLOUDY 71 67 89 CALM 29.97R KINSTON CLOUDY 72 69 92 SW8 29.96R NEW BERN MOCLDY 72 67 84 SW7 29.96R RICHLANDS CLOUDY 72 64 78 SW6 29.97R ROCKY MOUNT CLOUDY 73 71 93 NW3 29.95R FOG WASHINGTON PTCLDY 71 70 96 W6 29.95R WHITEVILLE CLOUDY 71 68 92 S3 29.97R $$ AMZ130-135-150-152-154-156-158-170-250-252-270-ANZ085-086-088-633-658-670-031100- MARINE OBSERVATIONS STATION/POSITION TIME TEMP WIND PRES WAVE SWELL AIR SEA DIR/SP/G HT/PER HT/PER (UTC) (F) (DEG/KT/KT) (MB) (FT/S) (FT/S) CHESAPEAKE LIGHT 1000 72 20/ 14/ 15 1013.8 64 E VA BEACH 0950 74 76 30/ 14/ 16 1012.1 5/ 7 3/ 7 DUCK 0900 71 67 60/ 4/ 4 1011.3 2 E DUCK 0911 74 N/A 2/ 8 OREGON INLET 0900 75 82 240/ 7/ 8 1012.0 13E OREGON INLT 1000 72 N/A 5/ 7 HATTERAS CG 0900 76 78 250/ 6/ 9 1012.3 DIAMOND BUOY 0950 78 83 250/ 16/ 17 1012.8 7/ 7 3/15 CAPE LOOKOUT 1000 76 250/ 17/ 21 1014.0 BEAUFORT LAB 0900 76 81 250/ 6/ 10 1013.0 30 SE NEW RVR IN 0908 78 80 260/ 14/ 17 1014.7 27 SE WRIGHTSVLE 0900 80 290/ 10/ 12 N/A 5 SE WRIGHTSVLE 0908 76 79 260/ 16/ 21 1014.7 225 S CAPE HAT 0950 82 80 220/ 16/ 21 1017.2 6/ 5 2/ 8 41 SE CHARLESTON 0950 79 81 230/ 19/ 21 1015.3 5/ 6 2/ 8 $$

USA.gov is the U.S. government's official web portal to all federal, state and local government web resources and services.